Location: Bellflower
(33.8817°N, 118.1170°W)
Time: 12:47:14
(UTC+00:00)

Cosmos 1777 Rocket - Pass Details

Date: 23 November 2020
Orbit: 757 x 777 km, 74.0° (Epoch: 21 January)

Event Time Altitude Azimuth Distance (km) Brightness Sun altitude
Rises 12:44:29 0° 203° (SSW) 3,201 7.1 -22.2°
Reaches altitude 10° 12:46:52 10° 206° (SSW) 2,278 6.3 -21.8°
Maximum altitude 12:51:59 65° 288° (WNW) 833 3.9 -20.7°
Drops below altitude 10° 12:57:09 10° 10° (N) 2,290 6.4 -19.7°
Sets 12:59:33 0° 14° (NNE) 3,219 7.3 -19.2°
